Location: Balaclava NSW 2575, Australia
(34.4510°S, 150.4953°E)
Time: 00:44:13
(UTC+10:00)

A-11 Canister half - Pass Details

Date: 13 June 2021
Orbit: 1513 x 1687 km, 47.2° (Epoch: 28 July)

Event Time Altitude Azimuth Distance (km) Brightness Sun altitude
Rises 18:37:28 0° 291° (WNW) 4,695 13.1 -20.6°
Reaches altitude 10° 18:40:32 10° 287° (WNW) 3,735 12.2 -21.3°
Maximum altitude 18:49:55 61° 207° (SSW) 1,776 9.3 -23.1°
Enters shadow 18:55:16 30° 138° (SE) 2,614 9.7 -24.2°
